This demonstration page uses our WeatherBlox Daily Observations layout. Learn more.

Left ArrowRight Arrow

Hourly Observations for November 26, 2020

Temp ( °F °C ) Dew Point ( °F °C ) Humidity (%) Winds ( mph kmh ) Pressure ( in mb ) Visibility ( mi km ) Precip ( " mm )
12:56 am 00:56 Clear 36 2.2 28 -2.2 73 73 SW 8 13 29.90 1013 10 16 0.00 0.00
1:56 am 01:56 Clear 37 2.8 27 -2.8 67 67 SW 13 20 29.89 1012 10 16 0.00 0.00
2:56 am 02:56 Clear 35 1.7 26 -3.3 70 70 SW 16 26 29.89 1012 10 16 0.00 0.00
3:56 am 03:56 Clear 35 1.7 26 -3.3 70 70 WSW 9 15 29.91 1013 10 16 0.00 0.00
4:56 am 04:56 Clear 34 1.1 25 -3.9 70 70 SW 7 11 29.94 1014 10 16 0.00 0.00
5:56 am 05:56 Clear 34 1.1 23 -5 64 64 WNW 9 15 29.98 1015 10 16 0.00 0.00
6:56 am 06:56 Clear 33 0.6 22 -5.6 64 64 NW 8 13 30.01 1016 10 16 0.00 0.00
7:56 am 07:56 Sunny 29 -1.7 23 -5 78 78 NW 7 11 30.04 1017 10 16 0.00 0.00
8:56 am 08:56 Sunny 33 0.6 25 -3.9 72 72 NNW 8 13 30.05 1018 10 16 0.00 0.00
9:56 am 09:56 Sunny 38 3.3 29 -1.7 70 70 N 14 22 30.06 1018 10 16 0.00 0.00
10:56 am 10:56 Sunny 42 5.6 32 0 68 68 NNE 17 28 30.06 1018 10 16 0.00 0.00
11:56 am 11:56 Sunny 45 7.2 32 0 61 61 NNE 15 24 30.05 1018 10 16 0.00 0.00
12:56 pm 12:56 Sunny 47 8.3 33 0.6 59 59 N 14 22 30.04 1017 10 16 0.00 0.00
1:56 pm 13:56 Sunny 48 8.9 34 1.1 58 58 NNE 16 26 30.01 1016 10 16 0.00 0.00
2:56 pm 14:56 Sunny 48 8.9 34 1.1 58 58 NNE 15 24 30.00 1016 10 16 0.00 0.00
3:56 pm 15:56 Sunny 47 8.3 34 1.1 61 61 NNE 15 24 30.01 1016 10 16 0.00 0.00
4:56 pm 16:56 Sunny 42 5.6 33 0.6 71 71 NNE 8 13 30.04 1017 10 16 0.00 0.00
5:56 pm 17:56 Clear 36 2.2 30 -1.1 79 79 NNE 9 15 30.07 1018 10 16 0.00 0.00
6:56 pm 18:56 Clear 37 2.8 31 -0.6 79 79 N 6 9 30.11 1020 10 16 0.00 0.00
7:56 pm 19:56 Clear 33 0.6 28 -2.2 82 82 N 5 7 30.15 1021 10 16 0.00 0.00
8:56 pm 20:56 Clear 31 -0.6 28 -2.2 89 89 NNW 6 9 30.17 1022 10 16 0.00 0.00
9:56 pm 21:56 Clear 32 0 29 -1.7 88 88 N 3 6 30.19 1022 10 16 0.00 0.00
10:56 pm 22:56 Clear 32 0 29 -1.7 88 88 N 3 6 30.20 1023 10 16 0.00 0.00
11:56 pm 23:56 Mostly Clear 29 -1.7 26 -3.3 89 89 NW 7 11 30.21 1023 10 16 0.00 0.00

Powered by AerisWeather